STARLINK-31920, 59907

Orbit data source: Space-Track

STARLINK-31920, 59907 is a payload satellite owned by SpaceX/Seattle (US) in LEO that was launched on Tue, 28 May 2024 UTC via an FALCON 9 launch vehicle from the Air Force Eastern Test Range (AFETR). Payload-class satellites include a variety of spacecraft equipped with specific instruments for various scientific and technological missions. These include communications satellites like Starlink; space stations such as the ISS; scientific satellites like the Hubble; Earth observation satellites from companies like Planet Labs, Umbra, and HawkEye 360; GPS; miniature CubeSats for education and research; and military/defense satellites.

Loading next visibility...
Identifier
59907, 2024-100Y
Orbit
LEO
Country
Flag of USUS
Related business
Manufacturer
SpaceX/Seattle
Mission
Operational Commercial Communications
Bus & Motor
STARLINK V2M, Unknown motor
Mass
730 kg wet, ~700 kg dry
Launch date (UTC)
2024-05-28 (2 years ago)
Launch vehicle
FALCON 9
Launch site
Air Force Eastern Test Range (AFETR)
Object type
Payload
Rocket body
Debris
Shape & HBR
Box + 2 Pan, 17.7 m
Radar Cross Section
33.884 m², Large (>1 m²)

Expand to show TLE details & history
Last TLE update: 14 hours ago

TLE from 14 hours ago
0 STARLINK-31920
1 59907U 24100Y   26036.04593951 -.00000279  00000-0 -61856-6 0  9992
2 59907  42.9997 277.3067 0001180 208.9199 151.1587 15.27576495 96523
Epoch: 2026-02-05T01:06Z
TLE epoch observation values (Epoch: 2026-02-05T01:06:09.173Z)
Latitude
-0.00005°
Longitude
125.56463°
Altitude
483.544 km
Speed
7.625 km/s
True Right ascension
18h 29m 13s
True Declination
0° 00' 00"
Sunlit
Object was in daylight at epoch
Visualization orbit readout
Latitude
Unknown
Longitude
Unknown
Altitude
Unknown
Speed
Unknown
Apparent Right ascension
Unknown
Apparent Declination
Unknown
Sunlit
N/A
Visualization observer readout
Local Sidereal Time
17:13:35
Azimuth
Unknown
Elevation
Unknown
Doppler factor
Unknown
Orbital elements
Apogee altitude
485.815 km
Perigee altitude
484.195 km
Semi-major axis
6,863.142 km
Eccentricity
0.00012
Inclination
42.9997°
RAAN
277.3067°
Arg. of periapsis
208.9199°
True anomaly
151.16522°
Mean anomaly
151.1587°
Eccentric anomaly
151.16196°
Mean motion
3.81732 °/min
Orbital period
94.31 mins
BSTAR
-6.1856e-7
Loading maneuver chart data...
Computing Atmospheric mass density...
Loading historical data...
Loading historical data...
Loading historical data...
Loading historical data...
Loading historical data...
Loading historical data...
Loading historical data...

Documentation

Showing up to 5 results
|